{"data":{"norad_id":56801,"intl_designator":"2023-078AL","name":"STARLINK-6087","alt_names":[],"object_type":"PAYLOAD","status":"ACTIVE","operator":null,"country":"US","launch_date":"2023-05-31","launch_site_code":"AFWTR","launch_vehicle":null,"mission":null,"orbit_class":"UNKNOWN","rcs_meters":null,"size_class":null,"mass_kg":null,"dimensions":null,"purposes":["comms"],"wikipedia_slug":null,"has_3d_model":false,"image_url":null,"decayed_at":null,"tle_current":{"epoch":"2026-09-20T22:00:03.000096Z","epoch_age_seconds":81585,"freshness":"FRESH","line1":"1 56801U 23078AL  26263.91670139  .00005154  00000+0  38634-3 0  9996","line2":"2 56801  70.0010 192.0626 0005420 265.5409 343.2379 15.03273137  5714","mean_motion":15.03273137,"eccentricity":0.000542,"inclination_deg":70.001,"raan_deg":192.0626,"arg_perigee_deg":265.5409,"mean_anomaly_deg":343.2379,"bstar":0.00038634,"rev_number":571,"period_min":95.790975342893,"perigee_km":553.0528082234,"apogee_km":560.57029245197,"semimajor_km":6934.9485503377,"source":"CELESTRAK","updated_at":"2026-09-21T09:00:33.510466Z"}}}